| time (UTC) | temp C | wind direction | speed KPH | gust KPH | rain 1hr cm | rain 24hr cm | rain mn cm | humidity % | barometer mb |
| 20260503192755 | 17 | 261 | 4.8 | 17.7 | 0.00 | 0.00 | 0.00 | 74 | 1009.8 |
| 20260503192253 | 17 | 215 | 1.6 | 16.1 | 0.00 | 0.00 | 0.00 | 73 | 1009.9 |
| 20260503191754 | 18 | 211 | 6.4 | 16.1 | 0.00 | 0.00 | 0.00 | 73 | 1009.8 |
| 20260503191252 | 18 | 24 | 1.6 | 6.4 | 0.00 | 0.00 | 0.00 | 70 | 1009.7 |
| 20260503190751 | 16 | 21 | 0.0 | 9.7 | 0.00 | 0.00 | 0.00 | 71 | 1009.8 |
| 20260503190250 | 17 | 175 | 3.2 | 9.7 | 0.00 | 0.00 | 0.00 | 74 | 1009.7 |
| 20260503185749 | 18 | 229 | 6.4 | 9.7 | 0.00 | 0.00 | 0.00 | 74 | 1009.9 |
| 20260503185248 | 17 | 238 | 1.6 | 11.3 | 0.00 | 0.00 | 0.00 | 72 | 1009.9 |
| 20260503184746 | 17 | 226 | 3.2 | 11.3 | 0.00 | 0.00 | 0.00 | 73 | 1009.8 |
| 20260503184508 | 17 | 244 | 1.6 | 4.8 | 0.00 | 0.00 | 0.00 | 72 | 1010.0 |
| 20260503184253 | 17 | 235 | 4.8 | 6.4 | 0.00 | 0.00 | 0.00 | 72 | 1009.8 |
| 20260503183244 | 17 | 271 | 1.6 | 6.4 | 0.00 | 0.00 | 0.00 | 74 | 1010.0 |
| 20260503182826 | 16 | 232 | 0.0 | 4.8 | 0.00 | 0.00 | 0.00 | 76 | 1009.8 |
| 20260503182755 | 17 | 232 | 3.2 | 6.4 | 0.00 | 0.00 | 0.00 | 74 | 1010.0 |
| 20260503181740 | 16 | 319 | 0.0 | 9.7 | 0.00 | 0.00 | 0.00 | 76 | 1010.0 |
| 20260503181239 | 17 | 244 | 6.4 | 9.7 | 0.00 | 0.00 | 0.00 | 76 | 1010.0 |
| 20260503181007 | 15 | 278 | 3.2 | 11.3 | 0.00 | 0.00 | 0.00 | 82 | 1010.0 |
| 20260503180739 | 17 | 224 | 0.0 | 9.7 | 0.00 | 0.00 | 0.00 | 77 | 1009.9 |
| 20260503180243 | 17 | 259 | 3.2 | 9.7 | 0.00 | 0.00 | 0.00 | 77 | 1010.0 |
| 20260503175739 | 17 | 293 | 1.6 | 9.7 | 0.00 | 0.00 | 0.00 | 76 | 1009.9 |
| 20260503175236 | 17 | 248 | 1.6 | 11.3 | 0.00 | 0.00 | 0.00 | 76 | 1010.0 |
| 20260503174735 | 16 | 241 | 4.8 | 11.3 | 0.00 | 0.00 | 0.00 | 76 | 1010.0 |
| 20260503174233 | 16 | 253 | 1.6 | 6.4 | 0.00 | 0.00 | 0.00 | 79 | 1010.1 |
| 20260503173753 | 16 | 271 | 3.2 | 4.8 | 0.00 | 0.00 | 0.00 | 80 | 1010.1 |
| 20260503173237 | 15 | 251 | 1.6 | 11.3 | 0.00 | 0.00 | 0.00 | 82 | 1010.0 |
| 20260503172223 | 15 | 351 | 0.0 | 6.4 | 0.00 | 0.00 | 0.00 | 84 | 1009.9 |
| 20260503171723 | 15 | 14 | 4.8 | 6.4 | 0.00 | 0.00 | 0.00 | 83 | 1009.9 |
| 20260503171223 | 15 | 216 | 1.6 | 9.7 | 0.00 | 0.00 | 0.00 | 83 | 1010.1 |
| 20260503170726 | 15 | 264 | 4.8 | 9.7 | 0.00 | 0.00 | 0.00 | 84 | 1010.0 |
| 20260503170220 | 15 | 263 | 4.8 | 11.3 | 0.00 | 0.00 | 0.00 | 85 | 1010.1 |
| 20260503160211 | 13 | 312 | 0.0 | 4.8 | 0.00 | 0.00 | 0.00 | 92 | 1009.9 |
| 20260503150700 | 13 | 291 | 0.0 | 4.8 | 0.00 | 0.00 | 0.00 | 89 | 1009.6 |
| 20260503150159 | 13 | 278 | 1.6 | 4.8 | 0.00 | 0.00 | 0.00 | 89 | 1009.6 |
| 20260503140148 | 12 | 290 | 0.0 | 0.0 | 0.00 | 0.00 | 0.00 | 94 | 1008.9 |
| 20260503131135 | 12 | 288 | 1.6 | 1.6 | 0.00 | 0.00 | 0.00 | 94 | 1008.3 |
| 20260503130636 | 12 | 318 | 0.0 | 3.2 | 0.00 | 0.00 | 0.00 | 94 | 1008.2 |
| 20260503130135 | 12 | 271 | 0.0 | 3.2 | 0.00 | 0.00 | 0.00 | 94 | 1008.1 |
| 20260503110559 | 12 | 185 | 3.2 | 4.8 | 0.00 | 0.00 | 0.00 | 92 | 1008.3 |
| 20260503081529 | 13 | 299 | 1.6 | 9.7 | 0.00 | 0.00 | 0.00 | 90 | 1008.8 |
| 20260503080548 | 13 | 291 | 1.6 | 4.8 | 0.00 | 0.00 | 0.00 | 90 | 1008.9 |
| 20260503080529 | 13 | 255 | 1.6 | 6.4 | 0.00 | 0.00 | 0.00 | 90 | 1009.1 |
| 20260503072515 | 13 | 294 | 1.6 | 9.7 | 0.00 | 0.00 | 0.00 | 91 | 1009.1 |
| 20260503072047 | 13 | 291 | 0.0 | 3.2 | 0.00 | 0.00 | 0.00 | 91 | 1009.1 |
| 20260503072020 | 13 | 279 | 1.6 | 4.8 | 0.00 | 0.00 | 0.00 | 91 | 1009.2 |
| 20260503071013 | 13 | 287 | 0.0 | 3.2 | 0.00 | 0.00 | 0.00 | 91 | 1009.1 |
| 20260503070512 | 13 | 295 | 0.0 | 3.2 | 0.00 | 0.00 | 0.00 | 91 | 1009.1 |
| 20260503055000 | 13 | 303 | 0.0 | 3.2 | 0.00 | 0.00 | 0.00 | 90 | 1009.5 |
| 20260503054016 | 13 | 292 | 0.0 | 1.6 | 0.00 | 0.00 | 0.00 | 90 | 1009.4 |
| 20260503053954 | 13 | 303 | 1.6 | 4.8 | 0.00 | 0.00 | 0.00 | 90 | 1009.4 |
| 20260503052952 | 13 | 286 | 0.0 | 4.8 | 0.00 | 0.00 | 0.00 | 90 | 1009.5 |
| 20260503052452 | 13 | 264 | 0.0 | 4.8 | 0.00 | 0.00 | 0.00 | 90 | 1009.5 |
| 20260503052013 | 13 | 218 | 0.0 | 9.7 | 0.00 | 0.00 | 0.00 | 90 | 1009.4 |
| 20260503051950 | 13 | 263 | 0.0 | 6.4 | 0.00 | 0.00 | 0.00 | 90 | 1009.5 |
| 20260503050949 | 13 | 309 | 3.2 | 9.7 | 0.00 | 0.00 | 0.00 | 89 | 1009.5 |
| 20260503050450 | 13 | 287 | 1.6 | 3.2 | 0.00 | 0.00 | 0.00 | 89 | 1009.5 |
| 20260503050011 | 13 | 287 | 0.0 | 4.8 | 0.00 | 0.00 | 0.00 | 89 | 1009.5 |
| 20260503045951 | 13 | 307 | 0.0 | 4.8 | 0.00 | 0.00 | 0.00 | 89 | 1009.5 |
| 20260503044946 | 13 | 260 | 3.2 | 6.4 | 0.00 | 0.00 | 0.00 | 89 | 1009.5 |
| 20260503044449 | 13 | 345 | 0.0 | 6.4 | 0.00 | 0.00 | 0.00 | 89 | 1009.4 |
| 20260503043941 | 13 | 329 | 1.6 | 6.4 | 0.00 | 0.00 | 0.00 | 89 | 1009.3 |
| 20260503043440 | 13 | 337 | 1.6 | 3.2 | 0.00 | 0.00 | 0.00 | 89 | 1009.1 |
| 20260503042941 | 13 | 314 | 1.6 | 6.4 | 0.00 | 0.00 | 0.00 | 89 | 1009.2 |
| 20260503042546 | 13 | 314 | 1.6 | 6.4 | 0.00 | 0.00 | 0.00 | 89 | 1009.1 |
| 20260503041939 | 13 | 58 | 0.0 | 4.8 | 0.00 | 0.00 | 0.00 | 89 | 1009.0 |
| 20260503041436 | 13 | 334 | 1.6 | 4.8 | 0.00 | 0.00 | 0.00 | 89 | 1009.2 |
| 20260503040937 | 13 | 99 | 1.6 | 9.7 | 0.00 | 0.00 | 0.00 | 89 | 1009.0 |
| 20260503040657 | 13 | 285 | 0.0 | 9.7 | 0.00 | 0.00 | 0.00 | 89 | 1009.0 |
| 20260503040435 | 13 | 309 | 3.2 | 9.7 | 0.00 | 0.00 | 0.00 | 89 | 1009.0 |
| 20260503035435 | 13 | 334 | 4.8 | 9.7 | 0.00 | 0.00 | 0.00 | 88 | 1008.8 |
| 20260503034933 | 13 | 7 | 1.6 | 6.4 | 0.00 | 0.00 | 0.00 | 89 | 1008.8 |
| 20260503034431 | 13 | 0 | 0.0 | 4.8 | 0.00 | 0.00 | 0.00 | 89 | 1008.8 |
| 20260503033930 | 13 | 25 | 0.0 | 11.3 | 0.00 | 0.00 | 0.00 | 88 | 1008.8 |
| 20260503033605 | 13 | 28 | 1.6 | 11.3 | 0.00 | 0.00 | 0.00 | 88 | 1008.8 |
| 20260503032948 | 13 | 275 | 1.6 | 9.7 | 0.00 | 0.00 | 0.00 | 88 | 1008.5 |
| 20260503032928 | 13 | 332 | 0.0 | 6.4 | 0.00 | 0.00 | 0.00 | 88 | 1008.6 |
| 20260503031425 | 14 | 314 | 4.8 | 9.7 | 0.00 | 0.00 | 0.00 | 87 | 1008.6 |
| 20260503030925 | 14 | 17 | 1.6 | 6.4 | 0.00 | 0.00 | 0.00 | 87 | 1008.3 |
| 20260503030423 | 14 | 358 | 3.2 | 4.8 | 0.00 | 0.00 | 0.00 | 87 | 1008.5 |
| 20260503025925 | 14 | 46 | 1.6 | 11.3 | 0.00 | 0.00 | 0.00 | 87 | 1008.2 |
| 20260503025421 | 14 | 349 | 1.6 | 11.3 | 0.00 | 0.00 | 0.00 | 86 | 1008.2 |
| 20260503024921 | 15 | 119 | 1.6 | 9.7 | 0.00 | 0.00 | 0.00 | 85 | 1008.2 |
| 20260503024420 | 15 | 34 | 1.6 | 6.4 | 0.00 | 0.00 | 0.00 | 85 | 1008.1 |
| 20260503023918 | 15 | 47 | 0.0 | 6.4 | 0.00 | 0.00 | 0.00 | 85 | 1008.2 |
| 20260503023418 | 15 | 338 | 3.2 | 6.4 | 0.00 | 0.00 | 0.00 | 84 | 1008.0 |
| 20260503022930 | 15 | 314 | 1.6 | 11.3 | 0.00 | 0.00 | 0.00 | 86 | 1008.0 |
| 20260503022916 | 15 | 354 | 0.0 | 11.3 | 0.00 | 0.00 | 0.00 | 86 | 1007.8 |
| 20260503021914 | 15 | 134 | 1.6 | 12.9 | 0.00 | 0.00 | 0.00 | 86 | 1007.8 |
| 20260503021414 | 15 | 334 | 0.0 | 12.9 | 0.00 | 0.00 | 0.00 | 86 | 1007.9 |
| 20260503020912 | 15 | 301 | 3.2 | 6.4 | 0.00 | 0.00 | 0.00 | 85 | 1007.8 |
| 20260503020411 | 15 | 292 | 1.6 | 6.4 | 0.00 | 0.00 | 0.00 | 85 | 1008.0 |
| 20260503015910 | 15 | 331 | 0.0 | 14.5 | 0.00 | 0.00 | 0.00 | 85 | 1007.9 |
| 20260503015409 | 16 | 292 | 4.8 | 14.5 | 0.00 | 0.00 | 0.00 | 85 | 1007.9 |
| 20260503014908 | 16 | 269 | 8.0 | 14.5 | 0.00 | 0.00 | 0.00 | 84 | 1008.0 |
| 20260503014408 | 16 | 215 | 3.2 | 9.7 | 0.00 | 0.00 | 0.00 | 83 | 1008.0 |
| 20260503013930 | 16 | 305 | 4.8 | 16.1 | 0.00 | 0.00 | 0.00 | 84 | 1008.0 |
| 20260503013909 | 16 | 256 | 1.6 | 16.1 | 0.00 | 0.00 | 0.00 | 84 | 1008.0 |
| 20260503012905 | 16 | 285 | 6.4 | 16.1 | 0.00 | 0.00 | 0.00 | 83 | 1007.7 |
| 20260503012404 | 16 | 49 | 4.8 | 16.1 | 0.00 | 0.00 | 0.00 | 83 | 1008.0 |
| 20260503011935 | 17 | 276 | 8.0 | 14.5 | 0.00 | 0.00 | 0.00 | 82 | 1007.9 |
| 20260503011904 | 16 | 24 | 1.6 | 16.1 | 0.00 | 0.00 | 0.00 | 83 | 1007.9 |
| 20260503010901 | 17 | 340 | 4.8 | 12.9 | 0.00 | 0.00 | 0.00 | 81 | 1007.9 |
| 20260503010400 | 17 | 5 | 1.6 | 14.5 | 0.00 | 0.00 | 0.00 | 81 | 1007.8 |
| 20260503005859 | 17 | 65 | 3.2 | 14.5 | 0.00 | 0.00 | 0.00 | 81 | 1007.9 |
| 20260503005429 | 18 | 304 | 3.2 | 16.1 | 0.00 | 0.00 | 0.00 | 79 | 1007.9 |
| 20260503005400 | 17 | 299 | 3.2 | 16.1 | 0.00 | 0.00 | 0.00 | 80 | 1007.9 |
| 20260503004355 | 18 | 296 | 3.2 | 14.5 | 0.00 | 0.00 | 0.00 | 80 | 1008.0 |
| 20260503003854 | 18 | 320 | 3.2 | 11.3 | 0.00 | 0.00 | 0.00 | 77 | 1007.9 |
| 20260503003543 | 20 | 20 | 3.2 | 17.7 | 0.00 | 0.00 | 0.00 | 76 | 1009.7 |
| 20260503003442 | 19 | 19 | 1.6 | 12.9 | 0.00 | 0.00 | 0.00 | 78 | 1010.7 |
| 20260503003354 | 19 | 303 | 3.2 | 11.3 | 0.00 | 0.00 | 0.00 | 76 | 1008.0 |
| 20260503003337 | 13 | 92 | 0.0 | 3.2 | 0.00 | 0.00 | 0.00 | 98 | 1009.3 |
| 20260503003329 | 13 | 153 | 1.6 | 4.8 | 0.00 | 0.00 | 0.00 | 98 | 1009.9 |
| 20260503003240 | 13 | 271 | 0.0 | 4.8 | 0.00 | 0.00 | 0.00 | 99 | 1010.2 |
| 20260503003231 | 13 | 72 | 0.0 | 6.4 | 0.00 | 0.00 | 0.00 | 98 | 1010.6 |
| 20260503003206 | 13 | 208 | 3.2 | 6.4 | 0.00 | 0.00 | 0.00 | 98 | 1010.6 |
| 20260503002852 | 18 | 301 | 1.6 | 11.3 | 0.00 | 0.00 | 0.00 | 76 | 1008.0 |
| 20260503002351 | 19 | 225 | 8.0 | 12.9 | 0.00 | 0.00 | 0.00 | 77 | 1008.1 |
| 20260503001851 | 20 | 293 | 0.0 | 12.9 | 0.00 | 0.00 | 0.00 | 76 | 1007.8 |
| 20260503001349 | 20 | 316 | 0.0 | 6.4 | 0.00 | 0.00 | 0.00 | 74 | 1008.0 |
| 20260503001237 | 20 | 302 | 3.2 | 9.7 | 0.00 | 0.00 | 0.00 | 76 | 1008.0 |
| 20260503000852 | 19 | 309 | 1.6 | 9.7 | 0.00 | 0.00 | 0.00 | 75 | 1008.0 |
| 20260502235847 | 20 | 346 | 3.2 | 9.7 | 0.00 | 0.00 | 0.00 | 74 | 1007.9 |
| 20260502235347 | 20 | 300 | 3.2 | 9.7 | 0.00 | 0.00 | 0.00 | 74 | 1008.1 |
| 20260502234846 | 20 | 318 | 6.4 | 9.7 | 0.00 | 0.00 | 0.00 | 73 | 1008.1 |
| 20260502234343 | 20 | 331 | 1.6 | 11.3 | 0.00 | 0.00 | 0.00 | 73 | 1008.0 |
| 20260502234255 | 19 | 46 | 3.2 | 16.1 | 0.00 | 0.00 | 0.00 | 74 | 1008.3 |
| 20260502233842 | 20 | 99 | 6.4 | 14.5 | 0.00 | 0.00 | 0.00 | 73 | 1008.0 |
| 20260502233342 | 19 | 0 | 3.2 | 14.5 | 0.00 | 0.00 | 0.00 | 76 | 1008.2 |
| 20260502232404 | 19 | 315 | 11.3 | 20.9 | 0.00 | 0.00 | 0.00 | 77 | 1008.5 |
| 20260502232340 | 19 | 357 | 8.0 | 16.1 | 0.00 | 0.00 | 0.00 | 77 | 1008.4 |
| 20260502231838 | 19 | 341 | 1.6 | 16.1 | 0.00 | 0.00 | 0.00 | 76 | 1008.4 |
| 20260502231700 | 19 | 353 | 6.4 | 20.9 | 0.00 | 0.00 | 0.00 | 78 | 1008.6 |
| 20260502231337 | 18 | 278 | 3.2 | 20.9 | 0.00 | 0.00 | 0.00 | 78 | 1008.3 |
| 20260502230811 | 19 | 326 | 6.4 | 20.9 | 0.00 | 0.00 | 0.00 | 77 | 1008.6 |
| 20260502230336 | 18 | 288 | 3.2 | 20.9 | 0.00 | 0.00 | 0.00 | 78 | 1008.5 |
| 20260502224833 | 19 | 280 | 4.8 | 16.1 | 0.00 | 0.00 | 0.00 | 76 | 1008.7 |
| 20260502224332 | 18 | 29 | 3.2 | 16.1 | 0.00 | 0.00 | 0.00 | 78 | 1008.8 |
| 20260502223830 | 19 | 316 | 6.4 | 16.1 | 0.00 | 0.00 | 0.00 | 76 | 1008.7 |
| 20260502223713 | 18 | 1 | 3.2 | 12.9 | 0.00 | 0.00 | 0.00 | 78 | 1009.1 |
| 20260502223329 | 18 | 4 | 4.8 | 12.9 | 0.00 | 0.00 | 0.00 | 76 | 1009.0 |
| 20260502222829 | 18 | 18 | 4.8 | 12.9 | 0.00 | 0.00 | 0.00 | 77 | 1008.9 |
| 20260502221828 | 18 | 301 | 3.2 | 20.9 | 0.00 | 0.00 | 0.00 | 79 | 1009.3 |
| 20260502221324 | 18 | 35 | 0.0 | 20.9 | 0.00 | 0.00 | 0.00 | 80 | 1009.3 |
| 20260502220825 | 18 | 83 | 4.8 | 14.5 | 0.00 | 0.00 | 0.00 | 79 | 1009.4 |
| 20260502220325 | 18 | 109 | 9.7 | 14.5 | 0.00 | 0.00 | 0.00 | 78 | 1009.4 |
| 20260502215823 | 18 | 358 | 4.8 | 14.5 | 0.00 | 0.00 | 0.00 | 80 | 1009.4 |
| 20260502215735 | 19 | 168 | 3.2 | 11.3 | 0.00 | 0.00 | 0.00 | 77 | 1009.5 |
| 20260502215323 | 18 | 63 | 4.8 | 12.9 | 0.00 | 0.00 | 0.00 | 79 | 1009.5 |
| 20260502214822 | 18 | 28 | 8.0 | 14.5 | 0.00 | 0.00 | 0.00 | 80 | 1009.5 |
| 20260502214331 | 18 | 42 | 1.6 | 14.5 | 0.00 | 0.00 | 0.00 | 79 | 1009.6 |
| 20260502213819 | 20 | 354 | 3.2 | 14.5 | 0.00 | 0.00 | 0.00 | 78 | 1009.5 |
| 20260502213002 | 21 | 334 | 0.0 | 6.4 | 0.00 | 0.00 | 0.00 | 74 | 1010.0 |
| 20260502212816 | 20 | 336 | 1.6 | 11.3 | 0.00 | 0.00 | 0.00 | 76 | 1009.7 |
| 20260502212625 | 20 | 2 | 0.0 | 9.7 | 0.00 | 0.00 | 0.00 | 73 | 1009.7 |
| 20260502212316 | 20 | 315 | 1.6 | 11.3 | 0.00 | 0.00 | 0.00 | 74 | 1009.8 |
| 20260502211818 | 20 | 350 | 0.0 | 17.7 | 0.00 | 0.00 | 0.00 | 76 | 1009.8 |
| 20260502205810 | 20 | 304 | 3.2 | 9.7 | 0.00 | 0.00 | 0.00 | 75 | 1009.8 |
| 20260502205310 | 20 | 191 | 1.6 | 9.7 | 0.00 | 0.00 | 0.00 | 75 | 1009.9 |
| 20260502204810 | 20 | 182 | 3.2 | 6.4 | 0.00 | 0.00 | 0.00 | 75 | 1010.2 |
| 20260502204307 | 19 | 289 | 4.8 | 9.7 | 0.00 | 0.00 | 0.00 | 76 | 1010.2 |
| 20260502203806 | 19 | 325 | 3.2 | 14.5 | 0.00 | 0.00 | 0.00 | 79 | 1010.1 |
| 20260502203306 | 20 | 251 | 1.6 | 14.5 | 0.00 | 0.00 | 0.00 | 78 | 1010.1 |
| 20260502202803 | 19 | 350 | 1.6 | 12.9 | 0.00 | 0.00 | 0.00 | 76 | 1010.1 |
| 20260502202617 | 18 | 30 | 8.0 | 16.1 | 0.00 | 0.00 | 0.00 | 81 | 1010.8 |
| 20260502202305 | 20 | 265 | 3.2 | 12.9 | 0.00 | 0.00 | 0.00 | 75 | 1010.2 |
| 20260502201803 | 20 | 330 | 3.2 | 12.9 | 0.00 | 0.00 | 0.00 | 75 | 1010.3 |
| 20260502201302 | 18 | 309 | 6.4 | 12.9 | 0.00 | 0.00 | 0.00 | 78 | 1010.7 |
| 20260502201138 | 19 | 319 | 4.8 | 12.9 | 0.00 | 0.00 | 0.00 | 78 | 1010.4 |
| 20260502200739 | 18 | 311 | 3.2 | 14.5 | 0.00 | 0.00 | 0.00 | 78 | 1010.3 |
| 20260502200150 | 18 | 296 | 3.2 | 16.1 | 0.00 | 0.00 | 0.00 | 79 | 1010.4 |
| 20260502195135 | 18 | 232 | 1.6 | 12.9 | 0.00 | 0.00 | 0.00 | 80 | 1010.8 |
| 20260502195059 | 18 | 313 | 3.2 | 14.5 | 0.00 | 0.00 | 0.00 | 78 | 1010.6 |
| 20260502194637 | 18 | 306 | 3.2 | 16.1 | 0.00 | 0.00 | 0.00 | 78 | 1010.6 |
| 20260502194139 | 19 | 217 | 11.3 | 16.1 | 0.00 | 0.00 | 0.00 | 80 | 1010.8 |